Temperature
21 21 21 20 18 17 20 20 21 22 23 24 24 24 23 23 22 22 23 23 22 22 21 21 21 20 20 20 20 20 20 20 20 20 20 19 19 19 19 19 19 19 19 18 18 18 18 18 18
21 21 20 20 18 19 20 21 22 22 24 24 24 24 23 22 22 23 23 22 22 22 21 21 21 20 20 20 20 20 20 20 20 20 20 19 19 19 19 19 19 19 18 18 18 18 18 18 18
21 21 21 17 18 19 21 22 22 23 24 24 24 23 23 22 23 23 23 22 22 22 21 21 21 21 20 20 20 20 20 20 20 19 19 19 19 19 19 19 19 18 18 18 18 18 18 18 18
21 21 20 17 20 20 20 22 22 22 24 24 23 23 23 22 23 23 23 22 22 21 21 21 21 21 20 20 20 20 20 20 19 19 19 19 19 19 19 18 18 18 18 18 18 18 18 18 18
21 21 18 18 19 20 20 22 23 22 23 23 23 22 22 22 23 23 22 22 22 21 21 21 21 21 20 20 20 20 20 19 19 19 19 19 19 19 18 18 18 18 18 18 18 18 18 17 17
21 18 18 19 20 20 21 22 23 22 23 23 23 22 22 22 22 22 22 22 21 21 21 21 20 20 20 20 20 19 19 19 19 19 19 19 18 18 18 18 18 18 18 17 17 17 17 17 17
20 17 18 20 20 21 22 23 23 22 22 23 23 21 21 22 22 22 22 21 21 21 21 20 20 20 20 20 19 19 19 19 19 19 19 18 18 18 18 18 18 18 17 17 17 17 17 17 17
21 17 19 19 20 21 22 23 23 23 23 23 23 22 21 22 22 21 21 21 20 20 20 20 20 20 20 19 19 19 19 19 19 19 18 18 18 18 18 18 17 17 17 17 17 17 17 17 17
21 17 19 20 21 21 22 22 23 23 23 22 22 23 23 22 21 21 21 20 20 20 20 20 20 20 20 19 19 19 19 19 18 18 18 18 18 18 18 17 17 17 17 17 17 17 17 16 16
20 18 20 20 21 21 22 22 22 23 22 22 22 22 22 22 21 21 21 20 20 20 20 20 20 20 19 19 19 19 18 18 18 18 18 18 18 17 17 17 17 17 17 16 16 16 16 16 16
20 19 20 21 22 22 22 22 23 22 21 22 22 22 22 21 21 21 21 21 21 20 20 20 20 19 19 19 18 18 18 18 18 18 18 17 17 17 17 17 17 16 16 16 16 16 16 16 16
19 20 21 22 23 22 22 22 22 22 22 23 23 22 22 21 21 21 21 21 20 20 20 20 19 19 19 18 18 18 18 18 18 18 17 17 17 17 17 16 16 16 16 16 16 16 15 15 16
20 20 22 23 23 22 22 21 21 21 22 22 22 22 21 21 21 21 20 20 20 20 19 19 19 19 18 18 18 18 18 18 17 17 17 17 16 16 16 16 16 16 15 15 15 15 15 15 15
21 21 22 22 22 22 21 21 21 21 22 22 21 21 21 20 20 20 20 20 19 19 19 19 19 18 18 18 18 18 18 17 17 17 17 16 16 16 16 16 15 15 15 15 15 15 15 15 15
21 21 21 21 21 22 21 21 20 21 21 20 20 20 19 19 19 19 20 20 19 19 19 19 18 18 18 18 17 17 17 17 16 16 16 16 16 15 15 15 15 15 15 15 15 15 15 15 15
21 20 21 21 21 21 21 20 19 20 20 19 19 19 19 19 19 19 19 19 19 19 19 18 18 18 17 17 17 17 17 16 16 16 16 15 15 15 15 15 15 15 15 15 14 14 14 14 14
19 20 20 20 20 20 20 19 18 19 18 18 18 18 18 18 18 18 18 18 18 18 18 18 17 17 17 17 17 16 16 16 16 15 15 15 15 15 15 15 15 14 14 14 14 14 14 14 14
20 20 20 20 20 19 18 17 17 18 17 17 17 17 17 17 17 18 18 18 18 18 17 17 17 17 16 16 16 16 16 15 15 15 15 15 15 14 14 14 14 14 14 14 14 14 14 14 14
20 20 20 20 20 19 18 17 17 17 16 16 16 16 16 16 17 17 18 17 17 17 17 16 16 16 16 16 16 15 15 15 15 15 15 14 14 14 14 14 14 14 14 14 14 13 13 13 13
20 20 20 19 20 19 17 17 17 17 16 16 16 16 16 16 17 17 17 17 17 16 16 16 16 16 16 15 15 15 15 15 15 14 14 14 14 14 14 14 13 13 13 13 13 13 13 13 13
20 20 20 19 19 18 18 17 17 16 16 16 16 16 16 16 16 16 16 16 16 16 16 16 16 16 15 15 15 15 14 14 14 14 14 14 14 14 13 13 13 13 13 13 13 12 12 12 12
20 20 20 19 18 17 18 17 16 16 15 15 15 15 15 16 16 16 16 16 16 16 16 16 15 15 15 15 15 14 14 14 14 14 14 14 13 13 13 13 13 13 12 12 12 12 12 12 12
20 19 18 18 17 17 16 16 15 15 15 15 15 15 15 16 16 15 15 15 15 15 15 15 15 15 15 14 14 14 14 14 13 13 13 13 13 13 13 13 13 12 12 12 12 12 12 12 12
19 18 17 15 15 16 17 16 15 15 15 15 15 15 15 15 15 15 15 15 15 15 15 15 15 15 14 14 14 14 14 13 13 13 13 13 13 13 13 12 12 12 12 12 12 12 12 11 11
17 16 16 16 15 16 16 15 15 15 15 15 15 15 15 15 15 15 15 15 15 15 14 14 14 14 14 14 14 13 13 13 13 13 12 12 12 12 12 12 12 12 12 12 11 11 11 11 11
17 17 16 16 16 15 15 15 15 15 15 15 15 15 14 14 15 15 15 14 14 14 14 14 14 14 13 13 13 13 13 13 13 12 12 12 12 12 12 12 12 12 12 11 11 11 11 11 11
18 16 15 14 15 15 15 15 15 15 15 14 14 14 14 14 14 14 14 14 14 14 14 14 13 13 13 13 13 13 13 13 12 12 12 12 12 12 12 12 12 11 11 11 11 11 11 11 11
17 15 13 14 15 15 15 15 14 14 14 13 13 13 14 14 14 14 14 14 14 13 13 13 13 13 13 13 13 12 12 12 12 12 12 12 12 12 12 12 11 11 11 11 11 11 11 11 11
17 16 13 12 13 14 14 14 15 14 14 13 13 13 13 13 14 13 14 13 13 13 13 13 13 13 13 12 12 12 12 12 12 12 12 12 12 12 12 12 11 11 11 11 11 11 11 10 10
17 16 14 14 14 13 13 13 15 13 13 13 13 13 14 13 13 13 13 13 13 13 13 13 13 13 12 12 12 12 12 12 12 12 12 12 12 12 11 11 11 11 11 11 11 10 10 10 10
Wind_Speed
5 4 2 3 4 4 2 4 3 4 3 2 1 3 5 3 3 2 1 9 12 12 13 16 17 16 16 15 15 16 16 16 16 15 15 15 15 15 14 13 13 12 11 10 10 9 8 8 7
4 3 3 4 4 2 4 4 3 3 2 1 2 3 4 2 2 3 4 7 12 12 12 14 17 16 15 15 15 15 15 15 14 14 14 14 13 13 13 12 12 11 10 10 9 9 8 8 7
3 2 4 4 3 3 4 3 2 3 3 1 1 3 2 1 2 4 5 11 11 10 11 14 17 16 15 14 14 13 13 13 13 13 13 13 12 12 11 11 11 10 10 9 9 8 8 7 7
3 4 5 4 1 4 5 4 2 3 3 2 2 2 1 2 3 5 10 12 11 9 9 13 16 15 14 14 13 13 13 13 12 12 12 11 11 11 10 10 10 10 9 9 9 8 8 8 7
3 4 4 2 4 5 4 5 3 2 2 1 2 2 1 4 6 10 12 12 11 9 8 11 14 14 14 13 13 12 12 12 11 11 10 10 9 9 9 9 9 9 9 9 9 9 8 8 7
4 4 4 1 4 5 4 3 2 1 1 1 2 2 1 3 7 9 10 9 9 9 7 8 13 13 13 12 12 11 11 10 10 9 9 9 8 8 8 8 9 8 8 8 8 8 8 8 8
4 4 3 2 3 4 3 2 1 1 1 2 3 4 0 3 5 9 8 8 8 7 6 5 7 10 11 11 11 10 10 9 9 8 8 8 7 7 7 8 8 8 8 9 8 8 8 8 9
5 5 2 2 3 4 3 3 2 1 2 0 3 4 3 4 8 9 9 7 7 6 5 4 4 5 6 7 9 9 9 9 8 8 7 7 7 7 7 7 8 8 9 9 9 9 9 8 9
4 4 1 4 4 4 2 2 3 2 1 2 1 1 3 11 12 10 8 6 5 5 3 3 3 3 4 5 7 7 8 7 7 6 7 6 4 4 4 5 6 7 8 9 9 8 8 8 9
4 3 6 5 5 4 3 3 3 2 1 1 2 4 9 12 11 10 9 8 7 6 5 4 4 3 4 5 4 4 4 4 4 4 4 4 3 4 4 4 6 7 8 8 8 7 7 7 6
4 5 5 4 5 3 2 2 1 1 2 3 3 6 10 10 8 8 7 7 7 6 5 4 4 3 3 3 2 2 2 2 3 3 3 3 2 2 2 2 4 5 5 4 5 5 4 4 4
3 5 5 5 3 2 2 2 1 1 4 2 4 8 9 10 9 9 8 6 5 5 5 4 4 4 4 2 2 2 2 2 2 2 3 2 1 2 2 2 2 2 2 2 2 2 3 4 5
4 5 4 4 2 2 2 1 0 2 3 2 7 9 9 9 7 5 4 3 3 4 4 4 4 5 4 3 2 2 2 2 2 2 3 3 2 3 2 1 2 2 2 2 2 3 3 3 4
4 3 5 3 1 0 2 0 1 3 1 4 7 7 6 6 5 4 3 3 3 4 5 5 5 4 4 3 3 2 2 1 2 2 3 3 3 2 2 2 1 2 2 2 2 3 3 3 3
2 3 6 3 1 1 3 4 1 2 3 5 5 5 4 3 3 3 3 3 3 4 4 5 5 4 4 4 3 2 1 1 1 1 2 3 3 2 2 2 2 2 2 2 2 2 2 2 3
3 4 4 5 3 2 4 1 5 4 4 5 4 4 4 3 2 2 1 1 1 1 2 2 3 4 3 2 2 1 1 1 1 1 2 3 3 3 2 2 2 2 1 1 1 1 2 2 2
5 3 3 6 4 3 4 0 4 5 6 6 5 5 5 4 4 3 2 1 1 2 2 2 2 2 2 1 1 1 1 1 1 1 1 2 2 2 2 2 2 1 1 1 2 1 2 2 3
2 2 3 4 4 4 4 2 3 4 6 6 5 5 5 4 4 4 4 2 2 2 2 2 2 2 1 1 0 0 0 1 1 1 1 2 2 2 1 2 2 1 1 1 1 2 2 2 2
3 2 3 3 2 3 4 3 3 4 6 6 5 4 4 4 4 6 5 4 4 4 3 2 2 1 1 1 1 1 1 1 1 2 2 2 2 2 1 1 1 1 1 2 1 1 2 2 1
3 1 2 3 2 3 4 4 3 4 3 3 3 3 3 4 6 6 5 4 4 3 3 2 1 1 1 1 1 1 1 1 2 2 2 2 2 2 2 2 2 1 1 1 1 1 1 1 0
1 2 3 3 2 4 4 3 4 3 4 5 4 2 2 2 3 4 4 4 3 2 1 1 1 1 0 1 1 0 1 1 1 2 2 3 2 2 2 2 2 2 1 2 2 1 1 1 1
2 3 2 1 2 1 1 0 3 3 5 5 4 4 3 3 3 3 4 4 3 3 1 1 1 1 1 0 1 1 1 1 3 3 3 3 3 2 2 2 2 2 1 2 2 2 2 2 2
2 2 2 2 3 2 4 3 4 2 3 5 4 4 3 3 3 3 3 3 3 3 2 2 1 1 2 1 1 1 1 2 2 2 4 3 3 2 2 2 1 1 2 2 2 1 2 2 2
1 5 5 5 5 2 2 1 3 2 3 4 4 3 2 2 2 3 3 4 4 4 3 2 2 1 1 2 2 1 1 1 1 2 3 4 3 2 3 2 2 2 2 3 3 2 2 2 3
7 6 5 6 5 3 2 1 4 3 1 2 3 2 1 1 1 2 3 4 5 5 5 3 2 2 2 2 3 3 2 2 2 2 3 3 3 3 3 2 2 2 3 3 2 2 3 3 3
2 5 4 2 3 4 3 1 4 2 2 3 2 1 1 1 2 2 3 3 4 4 4 3 3 3 3 3 3 3 3 2 2 3 3 4 3 3 3 2 2 2 2 2 1 2 2 2 3
3 2 3 5 0 2 4 3 4 4 5 5 5 4 3 2 3 3 3 3 3 3 4 4 3 4 4 3 3 3 3 3 3 3 3 3 3 3 3 2 2 2 2 1 1 1 2 2 2
4 4 5 4 1 3 5 4 4 6 7 7 6 5 4 4 4 4 4 3 3 3 3 4 3 4 4 3 2 2 3 3 3 2 3 3 3 3 2 2 2 2 2 1 1 1 2 2 2
4 4 5 3 3 3 3 5 3 3 4 4 5 4 3 3 4 4 4 4 4 3 3 3 3 3 3 3 3 2 3 3 3 2 3 3 3 3 2 2 2 2 2 2 2 2 2 2 3
2 2 3 2 1 2 2 6 3 2 3 3 4 4 3 3 4 4 4 3 3 4 4 3 3 4 4 3 3 2 3 3 3 3 3 3 3 2 2 2 2 2 2 2 2 3 3 3 3
Wind_Direction
154 127 106 74 58 47 306 285 279 316 320 332 57 113 127 133 168 210 82 138 136 144 154 159 159 155 151 148 144 141 140 140 139 139 140 141 143 147 150 153 156 158 160 161 162 164 164 164 165
137 128 71 62 83 48 291 267 280 286 280 330 43 73 84 65 70 113 129 140 139 144 150 158 160 158 155 152 149 146 145 145 145 145 147 148 150 153 156 158 161 165 167 168 170 172 173 174 175
141 102 88 76 107 182 257 268 254 302 311 324 53 53 89 149 141 159 158 140 136 142 150 161 161 161 159 157 154 151 151 152 152 154 156 158 161 163 166 167 170 173 176 179 181 183 185 186 188
110 58 58 72 246 237 234 273 281 309 335 359 103 75 67 21 158 150 137 139 139 142 149 162 162 164 162 161 160 159 159 159 161 162 164 167 170 173 177 178 181 185 187 189 192 194 198 200 202
64 82 64 26 276 271 264 273 269 284 305 335 109 124 20 14 90 116 132 140 144 146 149 161 162 165 165 165 164 165 165 165 167 171 172 175 179 182 185 189 194 199 201 202 203 204 208 213 217
61 73 87 285 286 284 282 274 283 259 222 259 131 130 2 80 112 125 130 135 141 147 146 158 165 167 169 169 167 166 166 167 169 173 176 181 188 193 194 201 206 209 213 217 219 218 218 225 230
108 103 148 205 275 294 278 284 258 248 244 228 157 138 243 116 124 123 120 121 127 136 139 144 158 168 172 172 168 166 165 167 171 174 177 185 195 203 208 212 217 220 225 229 232 231 230 235 240
126 106 120 226 236 271 294 318 283 231 262 336 130 154 204 169 126 110 104 107 121 133 140 143 142 152 159 170 172 171 169 170 171 177 184 191 200 208 217 223 231 234 237 238 240 242 245 247 251
95 77 213 223 210 251 278 311 308 331 73 49 75 142 142 126 122 115 111 116 133 147 149 149 147 143 151 160 173 177 178 178 178 183 189 192 197 202 216 231 241 247 246 244 247 250 255 260 263
98 147 230 222 205 231 277 268 276 4 15 16 47 71 109 123 134 140 148 158 167 175 175 168 165 162 155 167 172 174 179 180 184 189 195 191 188 198 214 242 251 256 254 254 255 254 255 260 263
160 202 235 250 223 222 250 270 273 148 282 236 189 149 134 137 146 157 166 173 182 181 176 176 173 168 167 167 157 163 170 169 182 191 187 183 191 216 234 251 264 268 268 264 270 268 263 254 250
187 248 232 252 228 208 221 254 343 157 235 238 159 146 142 153 165 174 179 184 179 176 181 178 178 176 176 169 173 169 167 172 186 204 201 187 198 230 240 246 263 267 269 286 294 281 269 258 248
214 264 266 255 272 196 152 207 230 287 283 65 114 131 151 165 175 176 172 175 178 181 188 187 181 183 181 174 178 174 191 202 202 197 204 197 205 226 236 252 262 270 273 267 271 265 266 264 265
232 255 291 299 306 337 127 273 91 301 16 98 111 133 154 159 161 155 157 179 193 200 195 182 175 180 171 182 197 194 194 205 191 199 203 203 206 216 225 242 258 275 273 271 263 264 264 261 264
307 332 340 351 8 315 89 11 345 315 73 97 106 111 115 114 111 140 173 184 201 207 196 180 172 170 177 190 194 194 192 183 213 230 221 215 214 217 217 235 260 270 268 264 266 274 273 266 271
25 32 354 323 7 20 98 319 341 9 84 82 83 89 89 76 82 83 81 151 181 176 161 168 166 159 177 192 195 198 165 183 239 234 229 232 230 223 210 228 248 261 255 252 250 259 269 274 280
29 17 318 316 354 43 85 344 348 18 75 74 66 74 79 63 38 30 46 66 156 156 126 118 129 140 157 166 185 153 129 190 255 262 252 249 241 235 220 230 240 236 231 251 263 263 256 268 279
265 294 300 300 330 62 79 56 11 27 73 77 64 58 60 55 28 16 17 30 89 105 105 116 118 124 135 116 125 129 99 286 310 297 277 266 254 244 241 255 254 228 219 255 263 266 263 255 272
190 193 271 281 315 83 93 72 18 31 55 60 58 50 46 35 25 26 30 46 65 65 74 101 120 115 117 149 199 216 245 263 270 265 274 267 259 252 234 243 255 241 233 249 255 258 283 279 293
142 113 300 317 17 105 101 65 35 37 52 62 65 51 33 25 24 18 19 36 54 64 61 69 113 140 145 188 210 209 213 239 250 268 293 291 274 263 236 218 222 221 242 272 261 254 252 275 293
70 181 254 256 17 59 98 25 25 13 25 33 31 25 8 32 15 8 10 11 26 38 41 355 347 18 149 170 142 39 41 352 329 307 294 290 284 260 249 228 220 223 210 239 248 231 211 247 261
301 282 253 196 98 324 77 220 325 342 355 358 351 344 341 357 10 7 9 3 357 343 351 357 5 1 341 94 165 188 211 258 273 293 288 293 287 270 260 231 214 212 219 246 251 227 214 206 256
254 336 47 80 116 60 25 110 301 351 335 318 318 320 326 347 9 6 360 349 347 351 2 3 11 11 349 332 234 207 252 266 285 319 315 303 289 284 280 252 225 221 229 243 251 245 220 205 222
33 39 45 47 67 44 328 132 295 287 281 303 312 320 328 353 16 1 358 358 353 352 357 354 348 321 338 339 326 285 263 277 306 321 307 306 298 288 284 267 238 236 240 240 243 235 228 227 226
42 59 26 8 12 282 319 106 252 269 283 297 308 312 321 339 357 348 344 350 343 338 331 336 334 329 339 338 331 319 284 248 248 266 270 283 295 284 274 268 255 252 250 249 244 237 243 234 238
26 108 136 214 249 289 341 270 262 298 333 356 11 16 8 316 322 319 317 319 317 319 315 313 316 312 306 305 306 306 292 272 264 255 250 259 263 267 271 272 268 267 261 264 257 254 256 246 246
72 69 152 137 119 319 305 304 306 354 3 9 17 21 356 320 313 310 311 301 290 297 302 289 286 290 288 286 294 301 300 285 274 275 269 267 268 274 275 274 279 282 275 263 242 254 268 269 259
76 124 74 84 79 309 307 300 291 318 332 347 351 348 334 334 325 321 314 296 288 283 293 297 288 279 283 288 281 300 303 295 279 279 282 283 283 285 288 288 288 302 305 293 269 262 267 268 276
20 47 70 91 139 164 287 285 259 264 298 313 309 311 310 310 307 304 303 301 296 302 306 306 312 306 303 296 285 292 296 296 296 292 286 285 288 292 288 277 276 287 289 281 274 278 276 275 285
86 96 114 108 277 175 203 272 310 307 321 320 316 316 310 300 304 300 304 311 312 309 312 310 311 309 301 296 290 290 299 314 317 311 309 310 310 306 297 280 283 289 286 279 272 280 281 277 287
Height
1499 1499 1500 1502 1505 1514 1514 1505 1497 1493 1490 1488 1488 1488 1488 1491 1494 1499 1492 1492 1494 1497 1500 1503 1505 1508 1511 1513 1515 1516 1518 1519 1521 1522 1523 1525 1526 1527 1528 1529 1530 1531 1532 1532 1533 1534 1534 1535 1535
1499 1500 1502 1502 1511 1522 1515 1501 1496 1493 1490 1489 1488 1488 1488 1489 1490 1491 1491 1492 1495 1498 1500 1503 1506 1508 1511 1513 1515 1517 1518 1519 1521 1522 1523 1525 1526 1527 1528 1529 1529 1530 1531 1532 1532 1533 1533 1534 1534
1499 1500 1502 1505 1513 1518 1509 1497 1494 1491 1490 1489 1489 1489 1489 1490 1491 1491 1492 1493 1496 1498 1501 1503 1506 1508 1511 1513 1515 1517 1518 1520 1521 1522 1523 1525 1526 1527 1528 1528 1529 1530 1530 1531 1532 1532 1533 1533 1533
1499 1501 1503 1509 1511 1507 1501 1494 1492 1491 1490 1489 1489 1490 1490 1492 1491 1492 1492 1494 1497 1499 1502 1504 1506 1509 1510 1512 1514 1516 1518 1519 1521 1522 1523 1524 1525 1526 1527 1528 1528 1529 1529 1530 1530 1531 1532 1532 1532
1499 1500 1507 1515 1510 1502 1496 1493 1491 1491 1490 1489 1489 1490 1491 1492 1492 1492 1494 1495 1498 1500 1502 1504 1507 1509 1511 1512 1514 1516 1517 1519 1520 1521 1522 1523 1524 1525 1526 1526 1527 1528 1528 1528 1529 1529 1530 1530 1531
1500 1501 1515 1518 1509 1500 1495 1492 1491 1490 1490 1489 1489 1490 1491 1492 1492 1494 1495 1497 1499 1501 1503 1505 1507 1509 1511 1512 1514 1515 1517 1518 1519 1520 1521 1522 1523 1524 1525 1525 1525 1526 1527 1527 1527 1527 1528 1529 1529
1500 1505 1512 1511 1509 1501 1494 1492 1491 1490 1489 1489 1489 1490 1491 1492 1493 1494 1496 1498 1500 1502 1503 1505 1507 1508 1510 1512 1513 1514 1516 1517 1518 1519 1520 1521 1521 1522 1523 1523 1524 1524 1524 1525 1525 1525 1526 1526 1527
1499 1504 1508 1510 1506 1501 1494 1492 1491 1490 1490 1490 1490 1490 1490 1492 1493 1494 1496 1498 1500 1502 1504 1505 1506 1508 1509 1511 1513 1513 1514 1516 1516 1517 1518 1519 1520 1520 1521 1521 1522 1522 1522 1522 1523 1523 1523 1523 1524
1499 1508 1512 1506 1503 1498 1493 1492 1491 1490 1490 1490 1490 1490 1491 1491 1493 1494 1496 1498 1500 1501 1503 1505 1506 1507 1509 1511 1512 1513 1514 1515 1515 1516 1517 1517 1517 1518 1518 1519 1519 1519 1519 1519 1520 1520 1520 1520 1521
1499 1509 1504 1497 1495 1494 1492 1492 1490 1491 1490 1490 1490 1490 1491 1491 1493 1493 1495 1496 1498 1500 1502 1503 1505 1507 1508 1509 1511 1512 1512 1513 1514 1514 1515 1515 1516 1516 1516 1516 1516 1516 1516 1516 1516 1516 1516 1517 1517
1498 1501 1496 1493 1491 1491 1491 1491 1491 1491 1491 1490 1490 1490 1490 1491 1493 1494 1495 1496 1497 1499 1501 1502 1504 1506 1507 1508 1509 1510 1511 1512 1512 1513 1513 1513 1513 1513 1513 1513 1513 1513 1513 1513 1513 1513 1513 1513 1513
1497 1494 1492 1490 1490 1490 1490 1490 1491 1491 1490 1489 1489 1489 1490 1491 1491 1493 1494 1496 1497 1499 1500 1501 1503 1504 1505 1506 1507 1508 1509 1509 1510 1510 1510 1510 1510 1511 1510 1510 1510 1510 1510 1510 1510 1510 1510 1510 1510
1495 1492 1490 1488 1488 1489 1490 1491 1491 1490 1489 1489 1488 1489 1489 1490 1492 1493 1495 1497 1498 1499 1499 1500 1502 1503 1504 1505 1506 1506 1507 1507 1508 1508 1507 1508 1508 1508 1508 1508 1508 1508 1508 1507 1507 1507 1507 1507 1507
1492 1491 1489 1488 1487 1488 1489 1490 1491 1490 1489 1489 1489 1490 1491 1491 1493 1494 1495 1496 1497 1498 1499 1499 1500 1502 1502 1503 1503 1504 1505 1505 1505 1505 1505 1505 1505 1505 1505 1505 1505 1505 1505 1505 1504 1504 1504 1503 1503
1491 1492 1490 1488 1487 1488 1489 1492 1492 1491 1489 1489 1490 1491 1492 1493 1493 1494 1494 1496 1497 1497 1498 1499 1500 1500 1500 1501 1502 1502 1503 1503 1503 1503 1503 1503 1503 1503 1503 1502 1502 1502 1502 1502 1501 1501 1501 1500 1500
1492 1497 1500 1492 1489 1489 1493 1501 1494 1492 1490 1491 1492 1492 1493 1493 1494 1494 1495 1495 1496 1497 1498 1498 1499 1499 1499 1499 1500 1500 1500 1501 1501 1501 1501 1500 1500 1500 1500 1499 1499 1499 1499 1498 1498 1498 1497 1497 1496
1502 1507 1504 1497 1491 1491 1495 1502 1498 1494 1492 1493 1494 1493 1494 1494 1494 1494 1494 1494 1495 1496 1496 1497 1497 1497 1497 1498 1499 1499 1499 1499 1499 1499 1498 1498 1498 1498 1497 1497 1496 1496 1496 1495 1495 1494 1494 1493 1493
1507 1506 1505 1502 1495 1495 1499 1503 1499 1496 1494 1495 1496 1496 1496 1495 1495 1494 1493 1493 1494 1495 1496 1496 1496 1497 1497 1497 1497 1497 1497 1497 1497 1497 1497 1496 1496 1495 1495 1494 1493 1493 1492 1492 1492 1492 1491 1490 1489
1499 1503 1506 1501 1495 1498 1502 1504 1501 1499 1497 1497 1497 1498 1497 1497 1497 1495 1494 1493 1494 1494 1494 1495 1495 1495 1495 1495 1495 1495 1494 1495 1495 1495 1494 1493 1493 1492 1492 1492 1491 1490 1489 1489 1489 1489 1488 1487 1486
1500 1504 1505 1501 1496 1499 1504 1505 1503 1501 1501 1501 1500 1499 1498 1497 1497 1496 1495 1495 1494 1493 1493 1493 1493 1493 1493 1494 1494 1493 1492 1492 1493 1492 1492 1491 1491 1490 1490 1489 1489 1488 1487 1486 1486 1485 1485 1484 1484
1500 1502 1502 1503 1499 1500 1503 1509 1506 1504 1502 1502 1501 1500 1499 1499 1498 1497 1496 1496 1495 1494 1493 1492 1492 1492 1492 1492 1492 1492 1491 1490 1490 1489 1489 1488 1488 1487 1487 1486 1486 1485 1485 1484 1484 1483 1482 1481 1481
1504 1496 1497 1499 1506 1513 1507 1520 1511 1507 1505 1503 1502 1501 1500 1499 1499 1498 1497 1496 1496 1495 1493 1493 1492 1492 1491 1491 1490 1489 1488 1487 1487 1487 1486 1486 1485 1485 1484 1483 1483 1483 1482 1482 1481 1481 1480 1479 1478
1498 1495 1497 1500 1506 1514 1513 1520 1518 1509 1508 1505 1503 1502 1501 1500 1500 1499 1498 1497 1496 1495 1493 1492 1491 1490 1490 1489 1489 1487 1486 1486 1485 1484 1483 1483 1483 1482 1481 1481 1481 1480 1480 1480 1479 1478 1477 1477 1476
1496 1499 1502 1508 1514 1524 1518 1521 1522 1514 1509 1506 1503 1502 1501 1501 1500 1499 1498 1497 1496 1495 1493 1491 1490 1489 1489 1488 1488 1486 1485 1484 1483 1482 1482 1481 1481 1480 1479 1478 1478 1478 1478 1477 1477 1475 1475 1474 1473
1502 1512 1524 1526 1531 1528 1518 1521 1521 1509 1506 1505 1503 1502 1501 1501 1500 1499 1498 1496 1495 1494 1493 1491 1489 1488 1488 1487 1486 1485 1484 1483 1481 1481 1481 1480 1479 1477 1476 1476 1475 1475 1475 1474 1474 1473 1472 1471 1470
1506 1513 1530 1536 1537 1531 1521 1522 1515 1506 1505 1504 1502 1502 1501 1500 1499 1499 1498 1496 1495 1493 1492 1491 1489 1487 1486 1485 1484 1483 1482 1481 1480 1479 1479 1478 1477 1476 1474 1473 1473 1472 1472 1471 1471 1470 1469 1468 1467
1508 1515 1517 1528 1530 1534 1527 1519 1511 1505 1504 1503 1502 1501 1500 1499 1499 1498 1497 1496 1494 1493 1491 1489 1488 1486 1485 1484 1483 1482 1481 1480 1479 1478 1477 1476 1475 1474 1473 1472 1471 1470 1469 1468 1468 1467 1466 1465 1464
1508 1514 1522 1530 1536 1538 1529 1524 1521 1511 1507 1504 1502 1501 1500 1499 1498 1497 1495 1494 1493 1491 1489 1488 1486 1485 1484 1483 1482 1481 1480 1478 1478 1477 1476 1474 1473 1472 1471 1470 1469 1468 1467 1466 1465 1464 1463 1462 1461
1513 1517 1524 1532 1532 1538 1539 1530 1511 1509 1506 1505 1503 1501 1500 1498 1497 1496 1494 1493 1491 1490 1488 1486 1485 1484 1482 1481 1480 1479 1478 1478 1477 1475 1474 1473 1471 1470 1469 1468 1467 1466 1465 1464 1463 1461 1460 1460 1459
1512 1516 1523 1530 1533 1535 1537 1531 1508 1507 1505 1503 1502 1500 1499 1498 1496 1495 1493 1491 1490 1489 1487 1486 1484 1482 1481 1479 1478 1478 1477 1477 1476 1474 1472 1471 1470 1468 1467 1466 1465 1464 1463 1462 1460 1459 1458 1457 1456